Showing default

SOLRAD 1 (GREB), 46

Orbit data source: Space-Track

SOLRAD 1 (GREB), 46 is a payload satellite owned by NRL (US) in LEO that was launched on Wed, 22 Jun 1960 UTC via a THOR ABLESTAR launch vehicle from the Air Force Eastern Test Range (AFETR). Payload-class satellites include a variety of spacecraft equipped with specific instruments for various scientific and technological missions. These include communications satellites like Starlink; space stations such as the ISS; scientific satellites like the Hubble; Earth observation satellites from companies like Planet Labs, Umbra, and HawkEye 360; GPS; miniature CubeSats for education and research; and military/defense satellites.

Loading next visibility...
Identifier
46, 1960-007B
Orbit
LEO
Country
Flag of USUS
Related business
Manufacturer
NRL
Mission
Spacecraft
Bus & Motor
NRL 20", Unknown motor
Mass
19 kg wet, 19 kg dry
Launch date (UTC)
1960-06-22 (66 years ago)
Launch vehicle
THOR ABLESTAR
Launch site
Air Force Eastern Test Range (AFETR)
Object type
Payload
Rocket body
Debris
Shape & HBR
Unknown
Radar Cross Section
Medium (>0.1 m² and <1 m²)

Expand to show TLE details & history
Last TLE update: 8 hours ago

TLE from 8 hours ago
0 SOLRAD 1 (GREB)
1 00046U 60007B   26175.19864195  .00000445  00000-0  10023-3 0  9999
2 00046  66.6865 209.1265 0202105 287.4390  70.4716 14.54881198458020
Epoch: 2026-06-24T04:46Z
TLE epoch observation values (Epoch: 2026-06-24T04:46:02.664Z)
Latitude
-0.00004°
Longitude
-134.74391°
Altitude
666.59 km
Speed
7.548 km/s
True Right ascension
13h 56m 30s
True Declination
0° 00' 00"
Sunlit
Object was in daylight at epoch
Visualization orbit readout
Latitude
Unknown
Longitude
Unknown
Altitude
Unknown
Speed
Unknown
Apparent Right ascension
Unknown
Apparent Declination
Unknown
Sunlit
N/A
Visualization observer readout
Local Sidereal Time
23:49:25
Azimuth
Unknown
Elevation
Unknown
Doppler factor
Unknown
Orbital elements
Apogee altitude
851.324 km
Perigee altitude
564.891 km
Semi-major axis
7,086.244 km
Eccentricity
0.02021
Inclination
66.6865°
RAAN
209.1265°
Arg. of periapsis
287.439°
True anomaly
72.67237°
Mean anomaly
70.4716°
Eccentric anomaly
71.57019°
Mean motion
3.63847 °/min
Orbital period
98.94 mins
BSTAR
0.00010023
Loading maneuver chart data...
Computing Atmospheric mass density...
Loading historical data...
Loading historical data...
Loading historical data...
Loading historical data...
Loading historical data...
Loading historical data...
Loading historical data...

Documentation

Showing up to 5 results
|